[[{"header":{"parameterUnit":"m.s-1","parameterCategory":1,"la1":30.2991,"la2":30.254,"lo1":-89.0895,"lo2":-89.0444,"dy":0.0017,"dx":0.0017,"nx":28,"ny":28,"refTime":"2023-10-06T21:00:00:Z","depth":0,"parameterNumber":2,"parameterNumberName":"U-component_of_WINDS"},"data":[0,0,0,0,0,0,0,0,0,0,0,0,0,0,0,0,0,0,0,0,0,0,0,0,0,0,0,0,0,0,0,0,0,0,0,0,0,0,0,0,0,0,0,0,0,0,0,0,0,0,0,0,0,0,0,0,0,0,-2.628,-2.628,0,-2.6332,-2.6332,-2.6333,-2.6223,-2.6219,-2.6216,-2.6212,-2.6266,-2.6271,-2.6275,0,0,0,0,0,0,0,0,0,0,0,0,0,-2.6083,-2.6087,-2.6279,-2.628,-2.6281,-2.6332,-2.6332,-2.6333,-2.6224,-2.6219,-2.6215,-2.6211,-2.6264,-2.627,-2.6276,0,0,0,0,0,0,0,0,0,0,0,0,0,-2.6155,-2.6088,-2.6279,-2.6232,-2.6229,-2.6332,-2.6333,-2.6333,-2.6225,-2.6219,-2.6214,-2.6209,-2.6263,-2.627,-2.6277,-2.6428,0,0,-2.6298,-2.6301,0,0,0,0,0,0,0,0,-2.6151,-2.6162,-2.6239,-2.6236,-2.6232,-2.6265,-2.6283,-2.6365,-2.6226,-2.6226,-2.6212,-2.6206,-2.627,-2.6276,-2.6298,-2.643,-2.6433,-2.6299,-2.6303,-2.6306,-2.6308,0,0,0,0,0,0,0,-2.6146,-2.616,-2.63,-2.624,-2.6236,-2.6208,-2.6212,-2.6298,-2.6278,-2.6226,-2.6218,-2.6226,-2.6267,-2.6291,-2.6298,-2.6433,-2.6299,-2.6305,-2.631,-2.6312,-2.6692,-2.6697,0,0,0,0,0,0,-2.6147,-2.6156,-2.6298,-2.6302,-2.6177,-2.6216,-2.6221,-2.626,-2.6276,-2.6274,-2.623,-2.622,-2.6282,-2.629,-2.63,-2.6479,-2.6306,-2.6313,-2.6317,-2.6686,-2.6693,-2.6699,0,0,0,0,0,0,-2.6144,-2.6161,-2.6296,-2.6227,-2.6242,-2.6225,-2.627,-2.6264,-2.6288,-2.628,-2.6275,-2.6259,-2.6278,-2.629,-2.6397,-2.6479,-2.6316,-2.6323,-2.6679,-2.6688,-2.6696,-2.6837,0,0,0,0,0,0,-2.6138,-2.616,-2.6219,-2.6229,-2.6246,-2.6394,-2.6275,-2.6269,-2.6301,-2.6288,-2.6305,-2.6303,-2.6275,-2.6387,-2.6404,-2.6486,-2.6328,-2.6672,-2.6683,-2.6693,-2.6825,-2.685,-2.6871,0,0,0,0,0,-2.6132,-2.6256,-2.6222,-2.624,-2.6318,-2.6399,-2.6408,-2.6373,-2.6308,-2.6366,-2.636,-2.6302,-2.6466,-2.6399,-2.6417,-2.6502,-2.6667,-2.668,-2.6693,-2.6815,-2.6845,-2.687,0,0,0,0,0,0,-2.6256,-2.6257,-2.6219,-2.635,-2.6375,-2.638,-2.6452,-2.6406,-2.645,-2.6437,-2.6391,-2.6395,-2.6512,-2.6517,-2.6441,-2.6649,-2.6555,-2.6573,-2.6642,-2.667,-2.6693,-2.669,-2.6334,0,0,0,0,0,-2.6299,-2.6364,-2.6361,-2.6477,-2.6491,-2.647,-2.6503,-2.6474,-2.6498,-2.6508,-2.651,-2.6535,-2.6592,-2.6631,-2.6683,-2.6824,-2.6827,-2.6892,-2.6914,-2.6933,-2.695,-2.7025,-2.7054,-2.6742,-2.6742,-2.6742,0,0,-2.6388,-2.6396,-2.6441,-2.6502,-2.6518,-2.6587,-2.648,-2.6557,-2.6607,-2.6519,-2.6621,-2.6623,-2.6648,-2.6773,-2.6828,-2.6781,-2.7036,-2.695,-2.6965,-2.6971,-2.7041,-2.7071,-2.7097,-2.6751,-2.6749,-2.6748,0,0,-2.6586,-2.6598,-2.6697,-2.6715,-2.674,-2.6724,-2.6748,-2.6759,-2.6757,-2.6858,-2.6793,-2.6852,-2.6951,-2.6972,-2.6995,-2.7198,-2.7147,-2.7216,-2.7336,-2.741,-2.7435,-2.7456,-2.753,-2.7557,-2.7232,-2.7232,-2.7232,0,-2.6694,-2.6795,-2.6753,-2.6835,-2.6865,-2.6787,-2.6886,-2.6905,-2.6946,-2.6968,-2.6914,-2.7036,-2.7047,-2.7176,-2.7226,-2.7247,-2.7272,-2.7216,-2.7434,-2.7456,-2.7475,-2.7545,-2.7573,-2.724,-2.724,-2.7239,-2.7238,0,-2.6927,-2.6998,-2.7075,-2.7116,-2.7153,-2.7244,-2.7215,-2.7257,-2.7224,-2.7214,-2.7317,-2.7327,-2.738,-2.7407,-2.7375,-2.7532,-2.7502,-2.7442,-2.7347,-2.7514,-2.7579,-2.7606,-2.7253,-2.725,-2.7247,-2.7245,0,0,-2.7209,-2.7224,-2.7253,-2.7271,-2.7292,-2.7346,-2.7431,-2.7483,-2.7521,-2.755,-2.7622,-2.7706,-2.765,-2.7677,-2.7646,-2.7711,-2.7872,-2.7642,-2.7642,-2.7687,-2.8046,-2.8093,-2.8125,-2.7837,-2.7842,-2.7846,-2.8045,0,-2.7407,-2.7555,-2.7519,-2.7667,-2.7732,-2.7657,-2.7732,-2.7753,-2.7745,-2.7798,-2.7788,-2.785,-2.7771,-2.7787,-2.7847,-2.784,-2.7944,-2.7825,-2.7904,-2.7907,-2.7904,-2.8159,-2.8209,-2.8397,-2.807,-2.8074,-2.8077,0,-2.7658,-2.7698,-2.7852,-2.7861,-2.7887,-2.7955,-2.7999,-2.8051,-2.8072,-2.8061,-2.809,-2.8046,-2.813,-2.8032,-2.8147,-2.8067,-2.8096,-2.8098,-2.8104,-2.8113,-2.8005,-2.8177,-2.8455,-2.8485,-2.8116,-2.8113,-2.811,0,-2.7851,-2.7942,-2.8046,-2.8063,-2.8076,-2.8126,-2.8133,-2.8149,-2.8182,-2.8219,-2.824,-2.8287,-2.8313,-2.835,-2.8319,-2.825,-2.844,-2.8339,-2.8434,-2.8436,-2.848,-2.8479,-2.8771,-2.8495,-2.8495,-2.8494,-2.8494,0,-2.8077,-2.8175,-2.8133,-2.8197,-2.8304,-2.826,-2.8367,-2.8365,-2.8379,-2.8442,-2.8379,-2.8439,-2.8393,-2.8449,-2.8424,-2.8524,-2.8536,-2.853,-2.8523,-2.8538,-2.8539,-2.8559,-2.8546,-2.8502,-2.85,-2.8499,-2.8497,0,-2.8312,-2.8288,-2.8396,-2.8399,-2.8402,-2.8481,-2.8483,-2.8542,-2.8528,-2.8607,-2.8623,-2.8602,-2.8664,-2.8636,-2.8701,-2.8684,-2.8813,-2.8788,-2.8807,-2.8802,-2.8899,-2.8891,-2.9216,-2.9257,-2.8953,-2.8956,-2.8959,0,-2.846,-2.8533,-2.8544,-2.8581,-2.8593,-2.8654,-2.8687,-2.8645,-2.8682,-2.871,-2.8766,-2.8823,-2.8866,-2.8968,-2.8958,-2.9007,-2.8984,-2.9094,-2.8991,-2.9003,-2.8988,-2.8985,-2.8993,-2.9116,-2.912,-2.9122,-2.9125,0,-2.8726,-2.8709,-2.8759,-2.8806,-2.8847,-2.8881,-2.891,-2.8943,-2.8902,-2.8947,-2.901,-2.9043,-2.9109,-2.9166,-2.9208,-2.9215,-2.9164,-2.9157,-2.9182,-2.9199,-2.9208,-2.9206,-2.8867,-2.915,-2.9148,-2.9146,-2.9145,-2.9143,-2.8923,-2.8985,-2.9002,-2.9059,-2.9076,-2.9104,-2.916,-2.9152,-2.9204,-2.9255,-2.9226,-2.93,-2.9316,-2.9368,-2.9382,-2.9438,-2.9395,-2.943,-2.944,-2.945,-2.9464,-2.9196,-2.9445,-2.9445,-2.9444,-2.9443,-2.9443,0,-2.9187,-2.9193,-2.9247,-2.9289,-2.9334,-2.928,-2.9309,-2.935,-2.9416,-2.9436,-2.9479,-2.9551,-2.9605,-2.9599,-2.9648,-2.9695,-2.9672,-2.9709,-2.9707,-2.971,-2.9499,-2.9474,-2.9726,-2.9726,-2.9726,-2.9726,-2.9726,-2.9726,-2.933,-2.9432,-2.9418,-2.9527,-2.9532,-2.9604,-2.9625,-2.965,-2.9666,-2.9749,-2.9794,-2.9788,-2.9798,-2.9847,-2.9894,-2.9891,-2.9913,-2.9959,-2.9948,-2.9752,-2.9724,-2.9698,-2.9673,-2.9964,-2.9964,-3.0153,-3.0155,-3.0156]},{"header":{"parameterUnit":"m.s-1","parameterCategory":1,"la1":30.2991,"la2":30.254,"lo1":-89.0895,"lo2":-89.0444,"dy":0.0017,"dx":0.0017,"nx":28,"ny":28,"refTime":"2023-10-06T21:00:00:Z","depth":0,"parameterNumber":3,"parameterNumberName":"V-component_of_WINDS"},"data":[0,0,0,0,0,0,0,0,0,0,0,0,0,0,0,0,0,0,0,0,0,0,0,0,0,0,0,0,0,0,0,0,0,0,0,0,0,0,0,0,0,0,0,0,0,0,0,0,0,0,0,0,0,0,0,0,0,0,-7.0326,-7.0327,0,-7.0425,-7.0426,-7.0427,-7.0306,-7.0302,-7.0297,-7.0293,-7.0388,-7.0395,-7.0401,0,0,0,0,0,0,0,0,0,0,0,0,0,-7.0025,-7.0031,-7.0326,-7.0327,-7.0329,-7.0425,-7.0426,-7.0428,-7.0307,-7.0302,-7.0296,-7.0291,-7.0386,-7.0394,-7.0402,0,0,0,0,0,0,0,0,0,0,0,0,0,-7.0143,-7.0033,-7.0326,-7.028,-7.0277,-7.0425,-7.0426,-7.0428,-7.0308,-7.0301,-7.0295,-7.0289,-7.0383,-7.0393,-7.0403,-7.0598,0,0,-7.0433,-7.0438,0,0,0,0,0,0,0,0,-7.0136,-7.0154,-7.0286,-7.0284,-7.028,-7.0347,-7.0355,-7.0485,-7.031,-7.0296,-7.0293,-7.0285,-7.0379,-7.0389,-7.0422,-7.0603,-7.0607,-7.0434,-7.044,-7.0445,-7.0447,0,0,0,0,0,0,0,-7.0128,-7.0149,-7.0365,-7.0288,-7.0285,-7.0252,-7.0262,-7.0379,-7.0374,-7.0297,-7.0288,-7.0302,-7.0376,-7.0413,-7.0423,-7.0608,-7.0434,-7.0443,-7.0449,-7.0453,-7.0951,-7.0958,0,0,0,0,0,0,-7.0126,-7.0143,-7.0362,-7.0368,-7.0191,-7.0263,-7.0274,-7.0332,-7.0372,-7.0372,-7.0308,-7.0296,-7.0399,-7.0412,-7.0426,-7.0657,-7.0445,-7.0454,-7.046,-7.0944,-7.0953,-7.096,0,0,0,0,0,0,-7.0121,-7.0147,-7.0358,-7.0253,-7.0278,-7.0275,-7.0342,-7.0338,-7.0374,-7.038,-7.0378,-7.0346,-7.0394,-7.0412,-7.0556,-7.0658,-7.0458,-7.0468,-7.0935,-7.0947,-7.0957,-7.112,0,0,0,0,0,0,-7.0112,-7.0146,-7.0222,-7.0256,-7.0284,-7.0489,-7.0348,-7.0344,-7.0392,-7.0378,-7.0416,-7.0416,-7.039,-7.0542,-7.0566,-7.0668,-7.0475,-7.0926,-7.094,-7.0953,-7.1105,-7.1135,-7.116,0,0,0,0,0,-7.0102,-7.0263,-7.0227,-7.0254,-7.0379,-7.0495,-7.0511,-7.048,-7.0401,-7.0476,-7.048,-7.0415,-7.0643,-7.0558,-7.0584,-7.0691,-7.092,-7.0936,-7.0952,-7.1093,-7.1129,-7.1159,0,0,0,0,0,0,-7.0239,-7.0267,-7.0227,-7.0404,-7.0448,-7.0475,-7.0569,-7.052,-7.0586,-7.057,-7.0526,-7.0536,-7.0689,-7.0704,-7.0609,-7.0881,-7.0768,-7.079,-7.0866,-7.09,-7.0927,-7.092,-7.0484,0,0,0,0,0,-7.029,-7.0384,-7.0402,-7.0556,-7.0581,-7.0572,-7.0621,-7.0593,-7.0637,-7.0654,-7.0669,-7.0712,-7.0792,-7.0847,-7.0922,-7.1106,-7.1112,-7.1192,-7.122,-7.1242,-7.1262,-7.1359,-7.1394,-7.1014,-7.1014,-7.1013,0,0,-7.0396,-7.0423,-7.0484,-7.0585,-7.0616,-7.0712,-7.0588,-7.0695,-7.0765,-7.067,-7.0807,-7.0819,-7.0864,-7.1029,-7.1102,-7.1046,-7.1368,-7.1263,-7.1281,-7.1288,-7.1379,-7.1415,-7.1447,-7.1025,-7.1023,-7.1021,0,0,-7.0638,-7.0669,-7.08,-7.0834,-7.0884,-7.0876,-7.0908,-7.0942,-7.0947,-7.1084,-7.1014,-7.1095,-7.1237,-7.1271,-7.1307,-7.1561,-7.1503,-7.1586,-7.173,-7.1825,-7.1854,-7.1881,-7.197,-7.2003,-7.1606,-7.1606,-7.1607,0,-7.0763,-7.0908,-7.0873,-7.0986,-7.1031,-7.0951,-7.1082,-7.1116,-7.1187,-7.1219,-7.1155,-7.133,-7.1354,-7.1525,-7.1587,-7.1619,-7.1652,-7.1582,-7.1853,-7.1879,-7.1903,-7.1988,-7.2022,-7.1616,-7.1615,-7.1614,-7.1613,0,-7.1058,-7.1159,-7.1258,-7.1331,-7.1387,-7.1509,-7.1491,-7.1551,-7.1518,-7.1517,-7.1656,-7.1683,-7.1761,-7.1799,-7.1768,-7.1966,-7.1929,-7.1861,-7.1746,-7.195,-7.2029,-7.2061,-7.163,-7.1627,-7.1624,-7.1621,0,0,-7.139,-7.1442,-7.1479,-7.151,-7.1559,-7.1635,-7.1751,-7.183,-7.1882,-7.1933,-7.2028,-7.2149,-7.2085,-7.2126,-7.2097,-7.2181,-7.2378,-7.2101,-7.2101,-7.2151,-7.2596,-7.2648,-7.2686,-7.234,-7.2346,-7.2351,-7.2592,0,-7.1632,-7.1836,-7.1808,-7.2004,-7.2095,-7.202,-7.212,-7.216,-7.2161,-7.2236,-7.2236,-7.2322,-7.2232,-7.2256,-7.2335,-7.2338,-7.2467,-7.232,-7.2426,-7.243,-7.2418,-7.2728,-7.2783,-7.301,-7.2623,-7.2628,-7.2632,0,-7.1942,-7.2007,-7.2212,-7.2245,-7.2282,-7.2374,-7.2443,-7.2517,-7.2559,-7.2553,-7.2599,-7.2555,-7.2668,-7.2552,-7.2707,-7.2607,-7.2649,-7.2656,-7.2664,-7.2673,-7.2544,-7.2744,-7.3081,-7.3115,-7.2681,-7.2677,-7.2673,0,-7.2163,-7.23,-7.2441,-7.247,-7.2512,-7.2578,-7.2598,-7.2634,-7.2682,-7.2741,-7.2772,-7.2843,-7.2882,-7.2937,-7.2912,-7.283,-7.3071,-7.2953,-7.3068,-7.3069,-7.3122,-7.3119,-7.3471,-7.315,-7.3149,-7.3149,-7.3148,0,-7.2436,-7.2565,-7.2541,-7.2627,-7.2767,-7.2733,-7.2872,-7.2882,-7.2914,-7.2999,-7.2936,-7.3017,-7.2979,-7.3057,-7.3037,-7.3167,-7.3185,-7.3183,-7.3176,-7.3188,-7.3189,-7.3215,-7.3198,-7.3158,-7.3156,-7.3154,-7.3152,0,-7.2707,-7.2696,-7.2844,-7.2872,-7.2882,-7.2984,-7.3007,-7.3086,-7.3082,-7.319,-7.3213,-7.3206,-7.3294,-7.3274,-7.337,-7.3356,-7.352,-7.3494,-7.3507,-7.3501,-7.3616,-7.3606,-7.3996,-7.4045,-7.3694,-7.3697,-7.37,0,-7.2882,-7.2979,-7.3018,-7.3072,-7.3098,-7.3184,-7.3234,-7.3202,-7.3256,-7.331,-7.3383,-7.3465,-7.3529,-7.3672,-7.3674,-7.3746,-7.372,-7.3852,-7.373,-7.3739,-7.3721,-7.3716,-7.3725,-7.3876,-7.388,-7.3884,-7.3886,0,-7.3194,-7.3184,-7.3259,-7.3333,-7.3395,-7.345,-7.35,-7.3546,-7.3518,-7.3581,-7.3671,-7.3721,-7.3819,-7.3901,-7.3967,-7.3984,-7.3931,-7.3924,-7.3955,-7.3968,-7.3972,-7.3971,-7.3573,-7.3916,-7.3913,-7.3911,-7.3909,-7.3908,-7.3422,-7.3504,-7.3545,-7.363,-7.3664,-7.3712,-7.3788,-7.3794,-7.3869,-7.3947,-7.3923,-7.4025,-7.4061,-7.4145,-7.4171,-7.4248,-7.4198,-7.4242,-7.4253,-7.4265,-7.4279,-7.396,-7.426,-7.4259,-7.4258,-7.4257,-7.4257,0,-7.373,-7.3752,-7.3831,-7.3903,-7.397,-7.3915,-7.3967,-7.4025,-7.4117,-7.4156,-7.4221,-7.4323,-7.4402,-7.441,-7.4483,-7.4544,-7.4521,-7.4564,-7.4559,-7.4563,-7.4319,-7.4286,-7.4581,-7.4581,-7.4581,-7.4581,-7.4581,-7.4581,-7.3898,-7.4034,-7.4029,-7.418,-7.42,-7.4302,-7.4336,-7.4378,-7.441,-7.4527,-7.4593,-7.4598,-7.4625,-7.4699,-7.4768,-7.4768,-7.4798,-7.4851,-7.4841,-7.4613,-7.4581,-7.455,-7.4518,-7.4857,-7.4858,-7.5078,-7.5081,-7.5082]}]]